Language: 


Des rapports , des résumés tant et plus, au choix de chacun....


Données statistiques de la station
Quotidien Rapport Juillet 28, 2017 Unités:  Métrique    Anglais   les deux
« Précédent Jour
Suivant Jour »
Quotidien Hebdomadaire Mensuel Annuel Actuel
  Haut: Bas: Moyen:
Température: 23.4 °C 13.5 °C 17.6 °C
Pt de rosée: 16.0 °C 12.0 °C 14.1 °C
Humidité: 96 % 50 % 81 %
Vitesse du vent: 28.8 km/h 0.0 km/h 8.7 km/h
Rafales: 37.5 km/h - -
Vent:- - WSW
Pression: 1013.1 hPa 1008.0 hPa -
Précipitation: 0.0 mm    
Historical Graphs
 
 
Données statistiques pour Juillet 28, 2017
Heure Température Point de rosée Pression Vent Vitesse du vent Refales Humidité Pluie (taux horaire)
00:01 14.9 °C 12.0 °C 1009.0 hPa WSW 10.8 km/h 11.6 km/h 83 % 0.0 mm
00:06 14.9 °C 13.0 °C 1009.0 hPa WSW 6.4 km/h 12.2 km/h 84 % 0.0 mm
00:11 14.8 °C 12.0 °C 1008.0 hPa WSW 6.4 km/h 12.2 km/h 84 % 0.0 mm
00:16 14.8 °C 13.0 °C 1008.0 hPa SSW 7.9 km/h 10.5 km/h 85 % 0.0 mm
00:21 14.8 °C 12.0 °C 1008.0 hPa West 7.9 km/h 10.5 km/h 84 % 0.0 mm
00:26 14.8 °C 13.0 °C 1009.0 hPa WNW 9.3 km/h 11.9 km/h 85 % 0.0 mm
00:31 14.8 °C 13.0 °C 1009.0 hPa SSW 8.7 km/h 13.7 km/h 86 % 0.0 mm
00:36 14.8 °C 13.0 °C 1009.0 hPa Calm   13.7 km/h 86 % 0.0 mm
00:41 14.7 °C 13.0 °C 1009.0 hPa WSW 6.9 km/h 10.5 km/h 87 % 0.0 mm
00:46 14.7 °C 13.0 °C 1009.0 hPa WSW 4.7 km/h 9.7 km/h 86 % 0.0 mm
00:51 14.6 °C 13.0 °C 1009.0 hPa SSW 2.6 km/h 9.7 km/h 87 % 0.0 mm
00:56 14.5 °C 13.0 °C 1009.0 hPa WSW 6.4 km/h 10.1 km/h 86 % 0.0 mm
01:02 14.4 °C 13.0 °C 1009.0 hPa WSW 6.1 km/h 10.5 km/h 87 % 0.0 mm
01:07 14.4 °C 13.0 °C 1009.0 hPa West 6.4 km/h 10.5 km/h 87 % 0.0 mm
01:12 14.4 °C 13.0 °C 1009.0 hPa WSW 6.9 km/h 10.1 km/h 87 % 0.0 mm
01:17 14.3 °C 13.0 °C 1009.0 hPa WSW 6.9 km/h 10.1 km/h 88 % 0.0 mm
01:18 14.3 °C 13.0 °C 1009.0 hPa Calm   10.1 km/h 88 % 0.0 mm
01:23 14.2 °C 13.0 °C 1009.0 hPa WSW 5.5 km/h 9.3 km/h 88 % 0.0 mm
01:28 14.2 °C 13.0 °C 1009.0 hPa WSW 6.4 km/h 9.3 km/h 88 % 0.0 mm
01:33 14.1 °C 13.0 °C 1009.0 hPa WSW 6.9 km/h 8.7 km/h 89 % 0.0 mm
01:38 14.1 °C 13.0 °C 1009.0 hPa Calm   8.7 km/h 89 % 0.0 mm
01:43 14.0 °C 12.0 °C 1009.0 hPa SSW 2.6 km/h 7.2 km/h 88 % 0.0 mm
01:48 13.9 °C 13.0 °C 1009.0 hPa Calm   7.2 km/h 89 % 0.0 mm
01:53 13.8 °C 12.0 °C 1009.0 hPa Calm   8.7 km/h 89 % 0.0 mm
01:58 13.8 °C 12.0 °C 1009.0 hPa Calm   8.7 km/h 90 % 0.0 mm
02:03 13.7 °C 12.0 °C 1009.0 hPa WSW 2.6 km/h 4.7 km/h 90 % 0.0 mm
02:08 13.7 °C 12.0 °C 1009.0 hPa Calm   6.4 km/h 90 % 0.0 mm
02:13 13.7 °C 13.0 °C 1009.0 hPa SSW 6.4 km/h 9.7 km/h 92 % 0.0 mm
02:18 13.8 °C 13.0 °C 1009.0 hPa Calm   9.7 km/h 92 % 0.0 mm
02:23 13.7 °C 13.0 °C 1009.0 hPa WSW 6.1 km/h 7.9 km/h 92 % 0.0 mm
02:28 13.8 °C 13.0 °C 1009.0 hPa SW 6.9 km/h 12.2 km/h 93 % 0.0 mm
02:33 13.9 °C 13.0 °C 1009.0 hPa WSW 6.1 km/h 12.2 km/h 93 % 0.0 mm
02:38 13.9 °C 13.0 °C 1009.0 hPa SSW 6.9 km/h 12.2 km/h 93 % 0.0 mm
02:44 13.9 °C 13.0 °C 1009.0 hPa SW 10.1 km/h 15.8 km/h 93 % 0.0 mm
02:49 13.9 °C 13.0 °C 1009.0 hPa Calm   15.8 km/h 93 % 0.0 mm
02:54 13.8 °C 13.0 °C 1009.0 hPa SSW 4.7 km/h 10.1 km/h 93 % 0.0 mm
02:59 13.7 °C 13.0 °C 1009.0 hPa Calm   9.0 km/h 93 % 0.0 mm
03:04 13.7 °C 13.0 °C 1009.0 hPa Calm   6.9 km/h 93 % 0.0 mm
03:09 13.6 °C 13.0 °C 1009.0 hPa WSW 1.8 km/h 7.9 km/h 93 % 0.0 mm
03:14 13.6 °C 13.0 °C 1009.0 hPa SSW 4.0 km/h 7.9 km/h 93 % 0.0 mm
03:19 13.5 °C 13.0 °C 1009.0 hPa SSW 10.1 km/h 10.8 km/h 93 % 0.0 mm
03:24 13.6 °C 13.0 °C 1009.0 hPa Calm   10.8 km/h 94 % 0.0 mm
03:29 13.7 °C 13.0 °C 1009.0 hPa West 6.1 km/h 11.1 km/h 94 % 0.0 mm
03:34 13.7 °C 13.0 °C 1009.0 hPa SW 9.0 km/h 11.1 km/h 94 % 0.0 mm
03:39 13.8 °C 13.0 °C 1009.0 hPa SW 10.1 km/h 11.6 km/h 95 % 0.0 mm
03:44 13.8 °C 13.0 °C 1009.0 hPa South 7.9 km/h 11.6 km/h 95 % 0.0 mm
03:49 13.8 °C 13.0 °C 1009.0 hPa Calm   11.6 km/h 95 % 0.0 mm
03:54 13.8 °C 13.0 °C 1009.0 hPa SW 6.9 km/h 11.6 km/h 95 % 0.0 mm
03:59 13.8 °C 13.0 °C 1009.0 hPa West 5.5 km/h 12.2 km/h 95 % 0.0 mm
04:04 13.8 °C 13.0 °C 1009.0 hPa SW 5.5 km/h 12.2 km/h 95 % 0.0 mm
04:09 13.8 °C 13.0 °C 1009.0 hPa WSW 9.3 km/h 10.1 km/h 95 % 0.0 mm
04:14 13.8 °C 13.0 °C 1009.0 hPa WSW 6.4 km/h 10.1 km/h 95 % 0.0 mm
04:20 13.8 °C 13.0 °C 1009.0 hPa SW 5.8 km/h 9.7 km/h 94 % 0.0 mm
04:25 13.7 °C 13.0 °C 1009.0 hPa West 1.4 km/h 9.3 km/h 95 % 0.0 mm
04:30 13.8 °C 13.0 °C 1009.0 hPa SSW 6.9 km/h 12.2 km/h 95 % 0.0 mm
04:35 13.8 °C 13.0 °C 1009.0 hPa WSW 8.7 km/h 12.2 km/h 95 % 0.0 mm
04:40 13.8 °C 13.0 °C 1009.0 hPa WSW 6.1 km/h 9.7 km/h 95 % 0.0 mm
04:45 13.8 °C 13.0 °C 1009.0 hPa SW 7.2 km/h 10.5 km/h 95 % 0.0 mm
04:50 13.8 °C 13.0 °C 1009.0 hPa SW 6.9 km/h 10.5 km/h 95 % 0.0 mm
04:55 13.8 °C 13.0 °C 1009.0 hPa SSW 7.9 km/h 10.1 km/h 95 % 0.0 mm
05:00 13.8 °C 13.0 °C 1009.0 hPa WSW 9.3 km/h 12.6 km/h 95 % 0.0 mm
05:05 13.9 °C 13.0 °C 1009.0 hPa West 9.3 km/h 12.6 km/h 95 % 0.0 mm
05:10 13.9 °C 13.0 °C 1009.0 hPa West 6.9 km/h 12.6 km/h 95 % 0.0 mm
05:15 13.9 °C 13.0 °C 1009.0 hPa WSW 13.0 km/h 13.0 km/h 95 % 0.0 mm
05:20 14.0 °C 13.0 °C 1009.0 hPa WSW 7.9 km/h 13.0 km/h 95 % 0.0 mm
05:25 14.0 °C 13.0 °C 1009.0 hPa SW 11.9 km/h 14.0 km/h 95 % 0.0 mm
05:30 14.1 °C 13.0 °C 1009.0 hPa SW 10.1 km/h 14.0 km/h 95 % 0.0 mm
05:35 14.1 °C 13.0 °C 1009.0 hPa SSW 8.7 km/h 14.0 km/h 95 % 0.0 mm
05:40 14.1 °C 13.0 °C 1009.0 hPa SW 6.4 km/h 13.7 km/h 95 % 0.0 mm
05:45 14.1 °C 13.0 °C 1009.0 hPa SW 7.2 km/h 14.0 km/h 95 % 0.0 mm
05:50 14.1 °C 13.0 °C 1009.0 hPa SSW 12.2 km/h 15.8 km/h 95 % 0.0 mm
05:55 14.0 °C 13.0 °C 1010.0 hPa SW 7.9 km/h 15.8 km/h 95 % 0.0 mm
06:00 14.0 °C 13.0 °C 1010.0 hPa SW 11.1 km/h 12.6 km/h 95 % 0.0 mm
06:05 14.0 °C 13.0 °C 1010.0 hPa SW 10.1 km/h 13.7 km/h 95 % 0.0 mm
06:10 13.9 °C 13.0 °C 1010.0 hPa South 5.5 km/h 13.7 km/h 95 % 0.0 mm
06:15 13.9 °C 13.0 °C 1010.0 hPa South 6.4 km/h 13.0 km/h 95 % 0.0 mm
06:20 13.8 °C 13.0 °C 1010.0 hPa SSW 6.9 km/h 11.6 km/h 95 % 0.0 mm
06:25 13.8 °C 13.0 °C 1010.0 hPa SSW 6.4 km/h 11.9 km/h 95 % 0.0 mm
06:30 13.8 °C 13.0 °C 1010.0 hPa SW 10.8 km/h 13.0 km/h 96 % 0.0 mm
06:35 13.8 °C 13.0 °C 1010.0 hPa SSW 6.9 km/h 13.0 km/h 96 % 0.0 mm
06:41 13.9 °C 14.0 °C 1010.0 hPa Calm   10.5 km/h 96 % 0.0 mm
06:46 14.0 °C 13.0 °C 1010.0 hPa Calm   11.9 km/h 95 % 0.0 mm
06:51 14.3 °C 14.0 °C 1010.0 hPa SW 7.2 km/h 11.9 km/h 96 % 0.0 mm
06:56 14.5 °C 14.0 °C 1010.0 hPa SW 6.4 km/h 11.1 km/h 96 % 0.0 mm
07:01 14.7 °C 14.0 °C 1010.0 hPa SW 4.0 km/h 11.1 km/h 96 % 0.0 mm
07:06 14.7 °C 14.0 °C 1010.0 hPa SW 9.7 km/h 11.1 km/h 95 % 0.0 mm
07:11 14.8 °C 14.0 °C 1010.0 hPa SSW 5.8 km/h 11.9 km/h 95 % 0.0 mm
07:16 14.9 °C 14.0 °C 1010.0 hPa Calm   11.9 km/h 95 % 0.0 mm
07:21 14.9 °C 14.0 °C 1010.0 hPa SSW 7.2 km/h 10.5 km/h 94 % 0.0 mm
07:26 15.0 °C 14.0 °C 1011.1 hPa SW 3.2 km/h 10.5 km/h 94 % 0.0 mm
07:31 15.1 °C 14.0 °C 1011.1 hPa Calm   10.5 km/h 94 % 0.0 mm
07:36 15.2 °C 14.0 °C 1011.1 hPa Calm   14.0 km/h 93 % 0.0 mm
07:46 15.3 °C 14.0 °C 1011.1 hPa Calm   12.6 km/h 93 % 0.0 mm
07:51 15.4 °C 14.0 °C 1011.1 hPa SW 12.2 km/h 12.2 km/h 93 % 0.0 mm
07:53 15.4 °C 14.0 °C 1011.1 hPa SSW 6.4 km/h 12.2 km/h 93 % 0.0 mm
07:58 15.5 °C 15.0 °C 1010.0 hPa SW 7.9 km/h 12.2 km/h 93 % 0.0 mm
08:03 15.7 °C 15.0 °C 1010.0 hPa SW 9.7 km/h 12.6 km/h 93 % 0.0 mm
08:08 15.7 °C 14.0 °C 1010.0 hPa SSW 8.7 km/h 14.0 km/h 92 % 0.0 mm
08:13 15.7 °C 14.0 °C 1011.1 hPa SSW 7.9 km/h 14.0 km/h 92 % 0.0 mm
08:18 16.2 °C 15.0 °C 1011.1 hPa WSW 8.7 km/h 13.7 km/h 92 % 0.0 mm
08:23 16.4 °C 15.0 °C 1011.1 hPa WSW 8.7 km/h 12.6 km/h 92 % 0.0 mm
08:29 16.5 °C 15.0 °C 1011.1 hPa SW 5.0 km/h 18.3 km/h 91 % 0.0 mm
08:34 16.5 °C 15.0 °C 1011.1 hPa SW 8.7 km/h 18.3 km/h 90 % 0.0 mm
08:39 16.4 °C 15.0 °C 1011.1 hPa WSW 7.6 km/h 12.2 km/h 90 % 0.0 mm
08:44 16.4 °C 15.0 °C 1011.1 hPa SSW 7.6 km/h 13.0 km/h 90 % 0.0 mm
08:54 16.6 °C 15.0 °C 1011.1 hPa WSW 5.8 km/h 11.9 km/h 90 % 0.0 mm
08:59 16.7 °C 15.0 °C 1012.1 hPa SW 9.0 km/h 13.0 km/h 89 % 0.0 mm
09:04 16.8 °C 15.0 °C 1012.1 hPa WSW 10.5 km/h 16.3 km/h 89 % 0.0 mm
09:09 16.8 °C 15.0 °C 1012.1 hPa SW 9.7 km/h 16.3 km/h 88 % 0.0 mm
09:14 16.8 °C 15.0 °C 1011.1 hPa SW 12.2 km/h 16.3 km/h 88 % 0.0 mm
09:19 16.9 °C 15.0 °C 1011.1 hPa SSW 9.0 km/h 16.3 km/h 88 % 0.0 mm
09:24 16.9 °C 15.0 °C 1011.1 hPa SW 12.6 km/h 16.3 km/h 87 % 0.0 mm
09:29 17.1 °C 15.0 °C 1011.1 hPa SSW 11.9 km/h 15.1 km/h 87 % 0.0 mm
09:34 17.4 °C 15.0 °C 1011.1 hPa WSW 11.9 km/h 14.3 km/h 86 % 0.0 mm
09:35 17.5 °C 15.0 °C 1011.1 hPa SW 4.0 km/h 14.3 km/h 86 % 0.0 mm
09:40 17.5 °C 15.0 °C 1010.0 hPa SW 9.0 km/h 15.4 km/h 85 % 0.0 mm
09:45 17.5 °C 15.0 °C 1010.0 hPa West 11.6 km/h 16.9 km/h 85 % 0.0 mm
09:50 18.0 °C 15.0 °C 1010.0 hPa SSW 15.4 km/h 17.7 km/h 84 % 0.0 mm
09:55 18.2 °C 15.0 °C 1010.0 hPa SSW 8.7 km/h 17.7 km/h 83 % 0.0 mm
10:00 18.2 °C 15.0 °C 1010.0 hPa WSW 6.1 km/h 17.2 km/h 82 % 0.0 mm
10:05 18.2 °C 15.0 °C 1010.0 hPa SSW 15.8 km/h 19.8 km/h 81 % 0.0 mm
10:15 18.5 °C 15.0 °C 1011.1 hPa WSW 11.9 km/h 17.2 km/h 80 % 0.0 mm
10:20 18.6 °C 15.0 °C 1011.1 hPa West 8.7 km/h 17.2 km/h 80 % 0.0 mm
10:25 18.6 °C 15.0 °C 1011.1 hPa WSW 9.7 km/h 17.2 km/h 79 % 0.0 mm
10:30 18.8 °C 15.0 °C 1011.1 hPa WSW 13.7 km/h 17.2 km/h 79 % 0.0 mm
10:35 18.8 °C 15.0 °C 1011.1 hPa WSW 12.6 km/h 24.5 km/h 78 % 0.0 mm
10:40 18.9 °C 15.0 °C 1011.1 hPa West 15.8 km/h 30.9 km/h 78 % 0.0 mm
10:45 19.0 °C 15.0 °C 1011.1 hPa SW 11.1 km/h 30.9 km/h 78 % 0.0 mm
10:51 19.0 °C 15.0 °C 1011.1 hPa WSW 12.6 km/h 20.1 km/h 78 % 0.0 mm
10:56 19.2 °C 15.0 °C 1010.0 hPa West 19.1 km/h 28.5 km/h 78 % 0.0 mm
11:02 19.4 °C 15.0 °C 1010.0 hPa WSW 12.6 km/h 28.5 km/h 78 % 0.0 mm
11:07 19.6 °C 15.0 °C 1010.0 hPa WSW 9.0 km/h 24.8 km/h 76 % 0.0 mm
11:12 19.9 °C 15.0 °C 1011.1 hPa WSW 14.8 km/h 30.6 km/h 74 % 0.0 mm
11:17 20.2 °C 16.0 °C 1011.1 hPa SSW 17.2 km/h 30.6 km/h 74 % 0.0 mm
11:22 20.5 °C 16.0 °C 1011.1 hPa West 14.0 km/h 21.6 km/h 72 % 0.0 mm
11:27 21.2 °C 16.0 °C 1011.1 hPa SSW 11.9 km/h 21.2 km/h 71 % 0.0 mm
11:32 22.0 °C 16.0 °C 1011.1 hPa WSW 17.2 km/h 21.2 km/h 67 % 0.0 mm
11:35 22.0 °C 16.0 °C 1011.1 hPa WSW 15.1 km/h 21.2 km/h 67 % 0.0 mm
11:40 21.7 °C 15.0 °C 1011.1 hPa WSW 12.2 km/h 21.2 km/h 66 % 0.0 mm
11:45 21.6 °C 14.0 °C 1011.1 hPa West 24.5 km/h 24.5 km/h 61 % 0.0 mm
11:50 21.7 °C 14.0 °C 1011.1 hPa SW 10.5 km/h 24.5 km/h 63 % 0.0 mm
11:55 22.2 °C 16.0 °C 1011.1 hPa SW 9.0 km/h 21.2 km/h 66 % 0.0 mm
12:00 22.8 °C 15.0 °C 1011.1 hPa SW 13.7 km/h 16.9 km/h 62 % 0.0 mm
12:05 23.0 °C 15.0 °C 1011.1 hPa WSW 24.8 km/h 27.0 km/h 60 % 0.0 mm
12:10 22.7 °C 14.0 °C 1011.1 hPa WSW 16.9 km/h 27.0 km/h 59 % 0.0 mm
12:15 22.0 °C 14.0 °C 1011.1 hPa SW 20.9 km/h 21.2 km/h 60 % 0.0 mm
12:20 21.8 °C 14.0 °C 1011.1 hPa SSW 10.5 km/h 21.2 km/h 63 % 0.0 mm
12:26 21.5 °C 14.0 °C 1012.1 hPa SSW 16.9 km/h 22.4 km/h 62 % 0.0 mm
12:31 21.4 °C 14.0 °C 1012.1 hPa WSW 12.2 km/h 23.0 km/h 64 % 0.0 mm
12:36 20.6 °C 14.0 °C 1012.1 hPa WSW 10.5 km/h 23.0 km/h 64 % 0.0 mm
12:41 19.9 °C 14.0 °C 1012.1 hPa SSW 9.3 km/h 21.2 km/h 70 % 0.0 mm
12:46 20.0 °C 15.0 °C 1012.1 hPa WSW 13.7 km/h 20.9 km/h 71 % 0.0 mm
12:51 20.3 °C 15.0 °C 1012.1 hPa SW 10.5 km/h 17.7 km/h 71 % 0.0 mm
12:56 20.6 °C 15.0 °C 1011.1 hPa West 6.4 km/h 17.7 km/h 71 % 0.0 mm
13:01 20.4 °C 14.0 °C 1011.1 hPa WSW 12.2 km/h 15.4 km/h 68 % 0.0 mm
13:06 20.3 °C 14.0 °C 1011.1 hPa WNW 13.7 km/h 20.9 km/h 68 % 0.0 mm
13:11 20.6 °C 15.0 °C 1012.1 hPa West 19.1 km/h 24.5 km/h 68 % 0.0 mm
13:16 21.0 °C 15.0 °C 1012.1 hPa SW 19.8 km/h 24.5 km/h 68 % 0.0 mm
13:21 21.6 °C 16.0 °C 1012.1 hPa WSW 12.6 km/h 21.2 km/h 68 % 0.0 mm
13:26 21.8 °C 15.0 °C 1011.1 hPa WSW 13.0 km/h 24.5 km/h 65 % 0.0 mm
13:31 21.3 °C 14.0 °C 1011.1 hPa WSW 8.7 km/h 24.5 km/h 64 % 0.0 mm
13:36 21.8 °C 14.0 °C 1011.1 hPa WSW 12.6 km/h 28.0 km/h 62 % 0.0 mm
13:41 22.3 °C 14.0 °C 1011.1 hPa SW 20.1 km/h 28.0 km/h 60 % 0.0 mm
13:46 22.8 °C 15.0 °C 1011.1 hPa SW 16.3 km/h 24.5 km/h 61 % 0.0 mm
13:51 23.4 °C 14.0 °C 1011.1 hPa SW 20.6 km/h 26.2 km/h 54 % 0.0 mm
13:56 23.3 °C 13.0 °C 1012.1 hPa WNW 17.2 km/h 31.4 km/h 52 % 0.0 mm
14:01 23.3 °C 13.0 °C 1012.1 hPa WSW 20.6 km/h 31.4 km/h 51 % 0.0 mm
14:06 22.9 °C 13.0 °C 1012.1 hPa WSW 13.7 km/h 36.0 km/h 52 % 0.0 mm
14:11 23.2 °C 13.0 °C 1012.1 hPa West 9.7 km/h 36.0 km/h 52 % 0.0 mm
14:13 23.1 °C 13.0 °C 1012.1 hPa WSW 12.2 km/h 36.0 km/h 51 % 0.0 mm
14:18 23.1 °C 13.0 °C 1012.1 hPa SSW 16.3 km/h 28.0 km/h 52 % 0.0 mm
14:23 23.3 °C 13.0 °C 1012.1 hPa WSW 17.2 km/h 30.9 km/h 50 % 0.0 mm
14:28 22.9 °C 13.0 °C 1012.1 hPa WNW 26.7 km/h 32.0 km/h 51 % 0.0 mm
14:33 22.5 °C 13.0 °C 1012.1 hPa WSW 28.0 km/h 32.0 km/h 52 % 0.0 mm
14:38 22.1 °C 13.0 °C 1012.1 hPa West 13.0 km/h 30.6 km/h 55 % 0.0 mm
14:43 21.7 °C 12.0 °C 1012.1 hPa South 16.6 km/h 37.0 km/h 53 % 0.0 mm
14:48 21.6 °C 13.0 °C 1012.1 hPa WSW 16.3 km/h 37.0 km/h 56 % 0.0 mm
14:53 21.5 °C 13.0 °C 1012.1 hPa West 19.1 km/h 27.7 km/h 57 % 0.0 mm
14:58 21.6 °C 13.0 °C 1012.1 hPa WSW 13.0 km/h 28.5 km/h 59 % 0.0 mm
15:03 22.1 °C 14.0 °C 1012.1 hPa WSW 20.6 km/h 32.0 km/h 59 % 0.0 mm
15:08 22.3 °C 13.0 °C 1012.1 hPa West 28.8 km/h 32.0 km/h 57 % 0.0 mm
15:14 22.0 °C 13.0 °C 1013.1 hPa West 20.9 km/h 30.6 km/h 56 % 0.0 mm
15:19 21.9 °C 13.0 °C 1013.1 hPa West 22.7 km/h 31.4 km/h 58 % 0.0 mm
15:24 22.0 °C 13.0 °C 1013.1 hPa West 13.0 km/h 31.4 km/h 58 % 0.0 mm
15:29 22.3 °C 13.0 °C 1012.1 hPa WSW 21.2 km/h 32.8 km/h 57 % 0.0 mm
15:34 22.1 °C 13.0 °C 1012.1 hPa WSW 16.9 km/h 32.8 km/h 56 % 0.0 mm
15:39 21.8 °C 13.0 °C 1012.1 hPa WSW 19.5 km/h 28.5 km/h 56 % 0.0 mm
15:44 22.2 °C 13.0 °C 1012.1 hPa WSW 21.2 km/h 28.5 km/h 57 % 0.0 mm
15:49 22.3 °C 13.0 °C 1012.1 hPa WSW 14.3 km/h 24.5 km/h 57 % 0.0 mm
15:54 22.1 °C 13.0 °C 1012.1 hPa WSW 13.7 km/h 24.5 km/h 57 % 0.0 mm
15:59 22.1 °C 13.0 °C 1012.1 hPa West 20.9 km/h 24.5 km/h 57 % 0.0 mm
16:04 21.8 °C 13.0 °C 1012.1 hPa WSW 23.8 km/h 30.6 km/h 57 % 0.0 mm
16:09 21.5 °C 13.0 °C 1012.1 hPa West 23.3 km/h 37.5 km/h 56 % 0.0 mm
16:14 21.4 °C 13.0 °C 1012.1 hPa WSW 21.2 km/h 37.5 km/h 57 % 0.0 mm
16:19 21.2 °C 13.0 °C 1012.1 hPa West 24.8 km/h 36.0 km/h 57 % 0.0 mm
16:24 21.2 °C 13.0 °C 1012.1 hPa WSW 21.9 km/h 36.0 km/h 57 % 0.0 mm
16:29 21.1 °C 13.0 °C 1012.1 hPa West 15.4 km/h 28.8 km/h 59 % 0.0 mm
16:34 21.0 °C 13.0 °C 1012.1 hPa West 16.3 km/h 28.8 km/h 59 % 0.0 mm
16:39 21.1 °C 13.0 °C 1012.1 hPa SW 13.7 km/h 25.3 km/h 60 % 0.0 mm
16:45 21.3 °C 14.0 °C 1013.1 hPa WSW 10.5 km/h 25.3 km/h 62 % 0.0 mm
16:50 21.2 °C 14.0 °C 1013.1 hPa WSW 12.6 km/h 16.6 km/h 62 % 0.0 mm
16:55 21.0 °C 13.0 °C 1013.1 hPa WSW 12.2 km/h 16.6 km/h 62 % 0.0 mm
17:00 20.6 °C 13.0 °C 1013.1 hPa WSW 16.3 km/h 16.6 km/h 63 % 0.0 mm
17:05 20.0 °C 14.0 °C 1013.1 hPa WSW 20.1 km/h 24.8 km/h 69 % 0.0 mm
17:10 19.7 °C 15.0 °C 1013.1 hPa West 12.6 km/h 24.8 km/h 73 % 0.0 mm
17:15 19.6 °C 15.0 °C 1013.1 hPa SW 6.9 km/h 19.8 km/h 75 % 0.0 mm
17:20 19.6 °C 16.0 °C 1013.1 hPa West 5.0 km/h 15.8 km/h 77 % 0.0 mm
17:25 19.6 °C 16.0 °C 1013.1 hPa SSW 11.6 km/h 13.7 km/h 77 % 0.0 mm
17:30 19.6 °C 16.0 °C 1013.1 hPa WSW 9.0 km/h 13.7 km/h 77 % 0.0 mm
17:32 19.6 °C 16.0 °C 1013.1 hPa SW 9.0 km/h 13.7 km/h 77 % 0.0 mm
17:37 19.4 °C 15.0 °C 1013.1 hPa SSW 9.7 km/h 12.2 km/h 77 % 0.0 mm
17:42 19.3 °C 15.0 °C 1013.1 hPa WSW 13.7 km/h 15.1 km/h 75 % 0.0 mm
17:47 19.3 °C 15.0 °C 1013.1 hPa West 13.7 km/h 21.2 km/h 75 % 0.0 mm
17:52 18.8 °C 15.0 °C 1013.1 hPa WSW 11.6 km/h 21.2 km/h 78 % 0.0 mm
17:57 18.7 °C 15.0 °C 1013.1 hPa Calm   17.7 km/h 80 % 0.0 mm
18:00 18.6 °C 15.0 °C 1013.1 hPa WSW 8.7 km/h 12.6 km/h 80 % 0.0 mm
18:10 18.5 °C 15.0 °C 1013.1 hPa WSW 4.7 km/h 16.3 km/h 79 % 0.0 mm
18:15 18.5 °C 15.0 °C 1013.1 hPa WSW 14.0 km/h 16.3 km/h 78 % 0.0 mm
18:20 18.6 °C 15.0 °C 1013.1 hPa WSW 11.9 km/h 16.6 km/h 77 % 0.0 mm
18:25 18.7 °C 14.0 °C 1013.1 hPa West 20.1 km/h 22.7 km/h 74 % 0.0 mm
18:30 18.7 °C 14.0 °C 1013.1 hPa WSW 12.6 km/h 22.7 km/h 74 % 0.0 mm
18:35 18.8 °C 14.0 °C 1013.1 hPa WSW 15.8 km/h 21.6 km/h 75 % 0.0 mm
18:40 18.8 °C 14.0 °C 1013.1 hPa WSW 14.0 km/h 21.6 km/h 75 % 0.0 mm
18:45 18.8 °C 14.0 °C 1013.1 hPa WSW 14.3 km/h 17.2 km/h 76 % 0.0 mm
18:50 18.8 °C 14.0 °C 1013.1 hPa SW 9.3 km/h 17.2 km/h 75 % 0.0 mm
18:55 18.9 °C 15.0 °C 1013.1 hPa SSW 5.8 km/h 16.3 km/h 76 % 0.0 mm
19:00 18.8 °C 15.0 °C 1013.1 hPa SW 7.9 km/h 16.3 km/h 77 % 0.0 mm
19:05 18.8 °C 15.0 °C 1013.1 hPa WSW 5.0 km/h 12.6 km/h 77 % 0.0 mm
19:10 18.8 °C 14.0 °C 1013.1 hPa WSW 11.9 km/h 15.4 km/h 76 % 0.0 mm
19:16 18.7 °C 15.0 °C 1013.1 hPa WSW 9.0 km/h 15.4 km/h 78 % 0.0 mm
19:21 18.5 °C 15.0 °C 1013.1 hPa WSW 9.0 km/h 12.2 km/h 80 % 0.0 mm
19:26 18.2 °C 15.0 °C 1013.1 hPa Calm   12.2 km/h 81 % 0.0 mm
19:31 18.1 °C 15.0 °C 1013.1 hPa West 3.5 km/h 10.5 km/h 81 % 0.0 mm
19:36 18.0 °C 15.0 °C 1013.1 hPa Calm   9.7 km/h 82 % 0.0 mm
19:41 17.9 °C 15.0 °C 1013.1 hPa Calm   5.5 km/h 83 % 0.0 mm
19:46 17.9 °C 16.0 °C 1013.1 hPa South 4.0 km/h 4.0 km/h 85 % 0.0 mm
19:51 17.8 °C 15.0 °C 1013.1 hPa Calm   4.0 km/h 85 % 0.0 mm
19:56 17.7 °C 15.0 °C 1012.1 hPa SW 2.6 km/h 4.3 km/h 86 % 0.0 mm
20:01 17.6 °C 15.0 °C 1012.1 hPa Calm   6.1 km/h 86 % 0.0 mm
20:06 17.7 °C 15.0 °C 1012.1 hPa Calm   7.6 km/h 86 % 0.0 mm
20:11 17.7 °C 16.0 °C 1012.1 hPa Calm   7.6 km/h 87 % 0.0 mm
20:16 17.8 °C 16.0 °C 1012.1 hPa Calm   8.7 km/h 87 % 0.0 mm
20:21 17.8 °C 16.0 °C 1012.1 hPa SW 5.8 km/h 8.7 km/h 87 % 0.0 mm
20:26 17.8 °C 16.0 °C 1012.1 hPa Calm   7.6 km/h 87 % 0.0 mm
20:31 17.8 °C 16.0 °C 1012.1 hPa Calm   7.6 km/h 87 % 0.0 mm
20:36 17.8 °C 16.0 °C 1012.1 hPa Calm   7.6 km/h 87 % 0.0 mm
20:41 17.8 °C 16.0 °C 1012.1 hPa Calm   7.6 km/h 87 % 0.0 mm
20:46 17.8 °C 16.0 °C 1012.1 hPa Calm   6.1 km/h 87 % 0.0 mm
20:52 17.8 °C 16.0 °C 1012.1 hPa SSW 5.0 km/h 6.1 km/h 87 % 0.0 mm
20:57 17.7 °C 16.0 °C 1011.1 hPa Calm   5.5 km/h 87 % 0.0 mm
21:02 17.7 °C 16.0 °C 1011.1 hPa Calm   5.5 km/h 87 % 0.0 mm
21:07 17.6 °C 16.0 °C 1011.1 hPa Calm   2.6 km/h 87 % 0.0 mm
21:12 17.5 °C 16.0 °C 1011.1 hPa Calm     87 % 0.0 mm
21:17 17.5 °C 16.0 °C 1011.1 hPa Calm     88 % 0.0 mm
21:22 17.5 °C 16.0 °C 1011.1 hPa Calm     88 % 0.0 mm
21:27 17.4 °C 15.0 °C 1011.1 hPa Calm     88 % 0.0 mm
21:32 17.4 °C 15.0 °C 1011.1 hPa SSW 1.4 km/h 6.1 km/h 88 % 0.0 mm
21:37 17.4 °C 15.0 °C 1011.1 hPa WSW 6.1 km/h 6.1 km/h 88 % 0.0 mm
21:42 17.5 °C 16.0 °C 1011.1 hPa SSW 5.0 km/h 7.9 km/h 88 % 0.0 mm
21:52 17.5 °C 16.0 °C 1011.1 hPa Calm   9.7 km/h 88 % 0.0 mm
21:57 17.6 °C 16.0 °C 1011.1 hPa SSW 4.3 km/h 10.5 km/h 89 % 0.0 mm
22:02 17.6 °C 16.0 °C 1011.1 hPa SSW 6.4 km/h 10.5 km/h 89 % 0.0 mm
22:07 17.6 °C 16.0 °C 1011.1 hPa SSW 2.6 km/h 10.5 km/h 88 % 0.0 mm
22:12 17.6 °C 16.0 °C 1011.1 hPa Calm   10.5 km/h 89 % 0.0 mm
22:17 17.5 °C 16.0 °C 1011.1 hPa SW 5.8 km/h 10.1 km/h 88 % 0.0 mm
22:22 17.5 °C 16.0 °C 1011.1 hPa SW 5.8 km/h 10.1 km/h 88 % 0.0 mm
22:27 17.5 °C 16.0 °C 1011.1 hPa Calm   8.7 km/h 88 % 0.0 mm
22:32 17.5 °C 16.0 °C 1011.1 hPa SW 1.8 km/h 8.7 km/h 89 % 0.0 mm
22:37 17.6 °C 16.0 °C 1011.1 hPa SW 10.1 km/h 10.1 km/h 89 % 0.0 mm
22:42 17.7 °C 16.0 °C 1011.1 hPa SSW 9.7 km/h 10.1 km/h 88 % 0.0 mm
22:47 17.9 °C 16.0 °C 1011.1 hPa South 6.9 km/h 10.1 km/h 87 % 0.0 mm
22:52 18.0 °C 16.0 °C 1011.1 hPa SSW 4.3 km/h 13.0 km/h 85 % 0.0 mm
22:57 18.0 °C 15.0 °C 1011.1 hPa SSW 3.5 km/h 13.0 km/h 84 % 0.0 mm
23:02 18.1 °C 15.0 °C 1011.1 hPa Calm   9.0 km/h 84 % 0.0 mm
23:07 18.1 °C 15.0 °C 1011.1 hPa Calm   9.0 km/h 83 % 0.0 mm
23:12 18.1 °C 15.0 °C 1010.0 hPa Calm   6.4 km/h 83 % 0.0 mm
23:17 18.1 °C 15.0 °C 1010.0 hPa WSW 1.8 km/h 6.4 km/h 82 % 0.0 mm
23:22 18.0 °C 15.0 °C 1010.0 hPa Calm   5.0 km/h 82 % 0.0 mm
23:28 17.9 °C 15.0 °C 1011.1 hPa Calm   5.8 km/h 83 % 0.0 mm
23:33 17.7 °C 15.0 °C 1011.1 hPa Calm   7.9 km/h 83 % 0.0 mm
23:38 17.6 °C 15.0 °C 1011.1 hPa Calm   7.9 km/h 83 % 0.0 mm
23:43 17.5 °C 15.0 °C 1011.1 hPa Calm   4.7 km/h 83 % 0.0 mm
23:48 17.3 °C 14.0 °C 1011.1 hPa Calm   5.5 km/h 83 % 0.0 mm
23:53 17.3 °C 14.0 °C 1011.1 hPa Calm   5.5 km/h 83 % 0.0 mm
23:58 17.2 °C 14.0 °C 1011.1 hPa Calm   1.8 km/h 83 % 0.0 mm
Le Gheer Warneton
Courtoisie de Weather Underground - 2.5 mb

Mise a jour : 18/12/2017 23:22:12
Généré par Cumulus 1.9.4 (1099)